{"data":{"norad_id":48060,"epoch":"2026-09-20T01:20:17.048832Z","epoch_age_seconds":56436,"freshness":"FRESH","line1":"1 48060U 21025U   26263.05575288 -.00000274  00000+0 -78627-3 0  9994","line2":"2 48060  87.8914 301.3483 0002558  86.8364 273.3058 13.13469414266013","mean_motion":13.13469414,"eccentricity":0.0002558,"inclination_deg":87.8914,"raan_deg":301.3483,"arg_perigee_deg":86.8364,"mean_anomaly_deg":273.3058,"bstar":-0.00078627,"rev_number":26601,"period_min":109.63331042591,"perigee_km":1207.8266707671,"apogee_km":1211.7086427895,"semimajor_km":7587.9046567783,"source":"CELESTRAK","updated_at":"2026-09-20T09:00:44.587719Z"}}